Location: Benque
(43.2594°N, 0.9178°E)
Time: 15:37:49
(UTC+00:00)

USA 267 - Pass Details

Date: 24 January 2020
Orbit: 1101 x 1107 km, 123.0° (Epoch: 22 February)

Event Time Altitude Azimuth Distance (km) Brightness Sun altitude
Exits shadow 18:30:18 14° 38° (NE) 2,647 4.8 -16.9°
Maximum altitude 18:35:10 36° 340° (NNW) 1,677 4.3 -17.8°
Drops below altitude 10° 18:40:59 10° 277° (W) 2,962 6.7 -18.8°
Sets 18:43:40 0° 269° (W) 3,919 7.8 -19.3°
